Bowling Green, KY

2:39 AM CST on February 24, 2017 (GMT -0600)
Bowling Green-Warren County Regional

Weather History for KBWG - June, 2013

Change the Weather History Date:

Wednesday, June 19, 2013

  Actual Average Record
Temperature  
Mean Temperature 76 °F 76 °F  
Max Temperature 87 °F 87 °F 105 °F (1931)
Min Temperature 65 °F 65 °F 49 °F (1903)
Degree Days  
Heating Degree Days 0 0  
Month to date heating degree days 0 3  
Since 1 June heating degree days 0 3  
Since 1 July heating degree days 3875 4046  
Cooling Degree Days 11 11  
Month to date cooling degree days 182 170  
Year to date cooling degree days 395 323  
Since 1 June cooling degree days 182 170  
Growing Degree Days 26 (Base 50)    
Moisture  
Dew Point 63 °F    
Average Humidity 65    
Maximum Humidity 87    
Minimum Humidity 43    
Precipitation  
Precipitation 0.00 in 0.14 in 1.25 in (1932)
Month to date precipitation 2.35 2.72  
Year to date precipitation 26.88 24.65  
Snow  
Snow 0.00 in 0.00 in 0.00 in ()
Month to date snowfall 0.0 0.0  
Since 1 June snowfall 0.0 0.0  
Since 1 July snowfall 3.8 9.1  
Snow Depth 0.00 in    
Sea Level Pressure  
Sea Level Pressure 30.02 in    
Wind  
Wind Speed 3 mph (ENE)    
Max Wind Speed 10 mph    
Max Gust Speed 13 mph    
Visibility 10 miles    
Events      
T = Trace of Precipitation, MM = Missing Value Source: NWS Daily Summary

Daily Weather History Graph

Daily Weather History Graph

Search for Another Location

Airport or City:

Trip Planner

Search our weather history database for the weather conditions in past years. The results will help you decide how hot, cold, wet, or windy it might be!

Date:

Astronomy

Jun. 19, 2013 Rise Set
Actual Time 5:26 AM CDT 8:08 PM CDT
Civil Twilight 4:55 AM CDT 8:38 PM CDT
Nautical Twilight 4:16 AM CDT 9:17 PM CDT
Astronomical Twilight 3:33 AM CDT 10:00 PM CDT
Moon 4:04 PM CDT (6/19) 2:05 AM CDT (6/19)
Length of Visible Light 15h 43m
Length of Day
14h 42m
Waxing Gibbous, 80% of the Moon is Illuminated
Jun 19
Waxing Gibbous
Jun 23
Full
Jun 29
Last Quarter
Jul 8
New
Jul 15
First Quarter

Hourly Weather History & Observations

Time (CDT) Temp. Heat Index Dew Point Humidity Pressure Visibility Wind Dir Wind Speed Gust Speed Precip Events Conditions
12:53 AM 72.0 °F - 61.0 °F 68% 29.95 in 10.0 mi Calm Calm - N/A   Clear
1:53 AM 71.1 °F - 61.0 °F 70% 29.96 in 10.0 mi Calm Calm - N/A   Clear
2:53 AM 70.0 °F - 62.1 °F 76% 29.96 in 10.0 mi Calm Calm - N/A   Partly Cloudy
3:53 AM 69.1 °F - 62.1 °F 78% 29.96 in 10.0 mi Calm Calm - N/A   Clear
4:53 AM 68.0 °F - 62.1 °F 81% 29.97 in 10.0 mi Calm Calm - N/A   Clear
5:53 AM 66.0 °F - 62.1 °F 87% 30.00 in 10.0 mi NNE 3.5 mph - N/A   Clear
6:53 AM 68.0 °F - 63.0 °F 84% 30.02 in 10.0 mi ENE 4.6 mph - N/A   Clear
7:53 AM 72.0 °F - 63.0 °F 73% 30.04 in 10.0 mi ENE 6.9 mph - N/A   Clear
8:53 AM 75.9 °F - 62.1 °F 62% 30.05 in 10.0 mi NE 4.6 mph - N/A   Clear
9:53 AM 78.1 °F - 62.1 °F 58% 30.05 in 10.0 mi Calm Calm - N/A   Clear
10:53 AM 82.0 °F 83.1 °F 63.0 °F 52% 30.05 in 10.0 mi North 3.5 mph - N/A   Clear
11:53 AM 82.9 °F 83.3 °F 61.0 °F 47% 30.05 in 10.0 mi Variable 3.5 mph - N/A   Clear
12:53 PM 84.9 °F 85.9 °F 63.0 °F 48% 30.04 in 10.0 mi ENE 6.9 mph - N/A   Clear
1:53 PM 86.0 °F 87.3 °F 64.0 °F 48% 30.03 in 10.0 mi NE 8.1 mph - N/A   Partly Cloudy
2:53 PM 86.0 °F 86.8 °F 63.0 °F 46% 30.03 in 10.0 mi ESE 5.8 mph - N/A   Scattered Clouds
3:53 PM 84.9 °F 85.4 °F 62.1 °F 46% 30.01 in 10.0 mi East 6.9 mph - N/A   Scattered Clouds
4:53 PM 87.1 °F 87.5 °F 62.1 °F 43% 30.01 in 10.0 mi Variable 5.8 mph - N/A   Partly Cloudy
5:53 PM 82.9 °F 84.4 °F 64.0 °F 53% 30.01 in 10.0 mi ENE 4.6 mph - N/A   Partly Cloudy
6:53 PM 82.0 °F 83.8 °F 64.9 °F 56% 30.02 in 10.0 mi ENE 6.9 mph - N/A   Clear
7:53 PM 79.0 °F - 64.9 °F 62% 30.04 in 10.0 mi ENE 4.6 mph - N/A   Clear
8:53 PM 75.9 °F - 64.9 °F 69% 30.04 in 10.0 mi Calm Calm - N/A   Clear
9:53 PM 73.9 °F - 64.9 °F 73% 30.06 in 10.0 mi Calm Calm - N/A   Clear
10:53 PM 73.0 °F - 64.9 °F 76% 30.07 in 10.0 mi Calm Calm - N/A   Clear
11:53 PM 71.1 °F - 64.0 °F 78% 30.09 in 10.0 mi Calm Calm - N/A   Clear